TimeCDT,TemperatureF,Dew PointF,Humidity,Sea Level PressureIn,VisibilityMPH,Wind Direction,Wind SpeedMPH,Gust SpeedMPH,PrecipitationIn,Events,Conditions,WindDirDegrees,DateUTC
12:15 AM,56.7,42.8,60,30.10,10.0,SSE,4.6,-,N/A,,Clear,160,2013-10-10 05:15:00
12:35 AM,56.7,44.8,64,30.10,10.0,SSE,5.8,-,N/A,,Clear,150,2013-10-10 05:35:00
12:55 AM,55.6,44.4,66,30.10,10.0,SSE,4.6,-,N/A,,Clear,160,2013-10-10 05:55:00
1:15 AM,56.3,45.1,66,30.10,10.0,SSE,3.5,-,N/A,,Clear,160,2013-10-10 06:15:00
1:35 AM,54.0,44.2,70,30.10,10.0,Calm,Calm,-,N/A,,Clear,0,2013-10-10 06:35:00
1:55 AM,54.1,44.2,69,30.09,10.0,SSE,5.8,-,N/A,,Clear,150,2013-10-10 06:55:00
2:15 AM,54.0,44.1,69,30.10,10.0,Calm,Calm,-,N/A,,Clear,0,2013-10-10 07:15:00
2:35 AM,51.8,43.3,73,30.10,10.0,Calm,Calm,-,N/A,,Clear,0,2013-10-10 07:35:00
2:55 AM,49.1,44.1,83,30.11,10.0,Calm,Calm,-,N/A,,Clear,0,2013-10-10 07:55:00
3:15 AM,51.8,45.1,78,30.10,10.0,Calm,Calm,-,N/A,,Clear,0,2013-10-10 08:15:00
3:35 AM,51.8,45.1,78,30.11,10.0,Calm,Calm,-,N/A,,Clear,0,2013-10-10 08:35:00
3:55 AM,46.6,40.8,80,30.11,10.0,Calm,Calm,-,N/A,,Clear,0,2013-10-10 08:55:00
4:15 AM,46.6,40.8,80,30.11,10.0,ESE,3.5,-,N/A,,Clear,110,2013-10-10 09:15:00
4:35 AM,45.1,40.1,82,30.09,10.0,ESE,4.6,-,N/A,,Clear,120,2013-10-10 09:35:00
4:55 AM,49.1,43.9,82,30.10,10.0,Calm,Calm,-,N/A,,Clear,0,2013-10-10 09:55:00
5:15 AM,47.5,41.7,80,30.10,10.0,Calm,Calm,-,N/A,,Clear,0,2013-10-10 10:15:00
5:35 AM,45.3,40.8,84,30.10,10.0,SE,3.5,-,N/A,,Clear,130,2013-10-10 10:35:00
5:55 AM,46.4,42.1,85,30.10,10.0,SE,4.6,-,N/A,,Clear,140,2013-10-10 10:55:00
6:15 AM,48.4,43.7,84,30.10,10.0,SE,5.8,-,N/A,,Clear,130,2013-10-10 11:15:00
6:35 AM,46.4,41.5,83,30.11,10.0,Calm,Calm,-,N/A,,Clear,0,2013-10-10 11:35:00
6:55 AM,46.4,41.9,84,30.10,10.0,ESE,3.5,-,N/A,,Clear,120,2013-10-10 11:55:00
7:15 AM,45.7,41.2,84,30.10,10.0,ESE,3.5,-,N/A,,Clear,120,2013-10-10 12:15:00
7:35 AM,46.4,42.1,85,30.11,10.0,SE,4.6,-,N/A,,Clear,130,2013-10-10 12:35:00
7:55 AM,49.1,44.1,83,30.11,10.0,SE,4.6,-,N/A,,Clear,130,2013-10-10 12:55:00
8:15 AM,51.8,46.0,81,30.12,10.0,SSE,3.5,-,N/A,,Clear,160,2013-10-10 13:15:00
8:35 AM,51.8,45.7,80,30.12,7.0,Calm,Calm,-,N/A,,Clear,0,2013-10-10 13:35:00
8:55 AM,56.1,48.7,76,30.12,10.0,Calm,Calm,-,N/A,,Clear,0,2013-10-10 13:55:00
9:15 AM,59.2,48.0,66,30.12,10.0,SSE,5.8,-,N/A,,Clear,160,2013-10-10 14:15:00
9:35 AM,61.7,48.4,62,30.12,10.0,SSE,5.8,-,N/A,,Clear,160,2013-10-10 14:35:00
9:55 AM,63.0,47.8,58,30.11,10.0,SSE,6.9,-,N/A,,Clear,160,2013-10-10 14:55:00
10:15 AM,63.9,48.4,57,30.11,10.0,SSE,6.9,-,N/A,,Clear,150,2013-10-10 15:15:00
10:35 AM,66.7,49.3,53,30.10,10.0,South,6.9,-,N/A,,Clear,170,2013-10-10 15:35:00
10:55 AM,66.7,50.0,55,30.10,10.0,SSE,6.9,-,N/A,,Clear,150,2013-10-10 15:55:00
11:15 AM,71.8,51.3,48,30.09,10.0,SSE,9.2,-,N/A,,Clear,150,2013-10-10 16:15:00
11:35 AM,71.8,49.1,45,30.09,10.0,SSE,9.2,-,N/A,,Clear,160,2013-10-10 16:35:00
11:55 AM,74.3,50.2,43,30.09,10.0,SSE,6.9,-,N/A,,Clear,160,2013-10-10 16:55:00
12:15 PM,77.0,50.7,40,30.09,10.0,South,9.2,-,N/A,,Clear,190,2013-10-10 17:15:00
12:35 PM,77.0,50.4,39,30.08,10.0,South,9.2,-,N/A,,Clear,170,2013-10-10 17:35:00
12:55 PM,77.0,48.7,37,30.06,10.0,South,10.4,18.4,N/A,,Clear,170,2013-10-10 17:55:00
1:15 PM,77.0,47.3,35,30.05,10.0,SSE,10.4,-,N/A,,Clear,160,2013-10-10 18:15:00
1:35 PM,77.0,46.2,34,30.05,10.0,South,11.5,-,N/A,,Clear,170,2013-10-10 18:35:00
1:55 PM,77.0,46.2,34,30.04,10.0,SSE,11.5,16.1,N/A,,Clear,160,2013-10-10 18:55:00
2:15 PM,77.5,46.2,33,30.03,10.0,South,10.4,17.3,N/A,,Clear,170,2013-10-10 19:15:00
2:35 PM,79.3,47.7,33,30.02,10.0,SSE,9.2,18.4,N/A,,Clear,160,2013-10-10 19:35:00
2:55 PM,79.3,47.3,32,30.02,10.0,South,9.2,-,N/A,,Clear,170,2013-10-10 19:55:00
3:15 PM,79.3,46.9,32,30.01,10.0,SSE,11.5,-,N/A,,Clear,150,2013-10-10 20:15:00
3:35 PM,79.3,46.0,31,30.01,10.0,SSE,12.7,17.3,N/A,,Clear,150,2013-10-10 20:35:00
3:55 PM,79.3,46.4,31,30.00,7.0,South,9.2,-,N/A,,Clear,190,2013-10-10 20:55:00
4:15 PM,79.3,44.6,29,30.00,10.0,South,10.4,16.1,N/A,,Clear,180,2013-10-10 21:15:00
4:35 PM,79.3,44.8,29,30.00,10.0,South,8.1,-,N/A,,Clear,180,2013-10-10 21:35:00
4:55 PM,79.3,44.8,29,29.99,10.0,SSE,8.1,-,N/A,,Clear,160,2013-10-10 21:55:00
5:15 PM,77.0,43.3,30,29.98,10.0,South,5.8,-,N/A,,Clear,170,2013-10-10 22:15:00
5:35 PM,77.0,45.5,33,29.98,10.0,SSE,10.4,-,N/A,,Clear,150,2013-10-10 22:35:00
5:55 PM,77.0,47.8,36,29.98,10.0,SSE,8.1,-,N/A,,Clear,150,2013-10-10 22:55:00
6:15 PM,71.8,46.9,41,29.98,10.0,SE,6.9,-,N/A,,Clear,140,2013-10-10 23:15:00
6:35 PM,71.8,50.2,46,29.98,10.0,SSE,5.8,-,N/A,,Clear,150,2013-10-10 23:35:00
6:55 PM,67.5,48.0,50,29.97,10.0,SE,5.8,-,N/A,,Clear,130,2013-10-10 23:55:00
7:15 PM,66.6,48.4,52,29.97,10.0,SE,5.8,-,N/A,,Clear,140,2013-10-11 00:15:00
7:35 PM,64.4,48.4,56,29.97,10.0,SE,5.8,-,N/A,,Clear,140,2013-10-11 00:35:00
7:55 PM,63.1,48.6,59,29.97,10.0,SE,5.8,-,N/A,,Clear,130,2013-10-11 00:55:00
8:15 PM,63.7,48.9,59,29.97,10.0,SE,6.9,-,N/A,,Clear,130,2013-10-11 01:15:00
8:35 PM,63.3,49.1,60,29.97,10.0,SE,5.8,-,N/A,,Clear,140,2013-10-11 01:35:00
8:55 PM,63.0,49.5,61,29.97,10.0,SSE,6.9,-,N/A,,Clear,150,2013-10-11 01:55:00
9:15 PM,63.1,48.9,60,29.97,10.0,SSE,8.1,-,N/A,,Clear,150,2013-10-11 02:15:00
9:35 PM,63.5,49.3,60,29.97,10.0,SSE,8.1,-,N/A,,Clear,150,2013-10-11 02:35:00
9:55 PM,63.5,49.1,59,29.97,10.0,SE,8.1,-,N/A,,Clear,140,2013-10-11 02:55:00
10:15 PM,63.0,49.5,61,29.97,10.0,SSE,9.2,-,N/A,,Clear,150,2013-10-11 03:15:00
10:35 PM,61.7,49.1,63,29.97,10.0,SSE,8.1,-,N/A,,Clear,150,2013-10-11 03:35:00
10:55 PM,61.7,49.6,65,29.97,10.0,SSE,8.1,-,N/A,,Clear,150,2013-10-11 03:55:00
11:15 PM,61.7,49.5,64,29.97,10.0,SSE,8.1,-,N/A,,Clear,150,2013-10-11 04:15:00
11:35 PM,61.7,50.4,66,29.97,10.0,SE,8.1,-,N/A,,Clear,140,2013-10-11 04:35:00
11:55 PM,61.7,50.9,68,29.96,10.0,SE,8.1,-,N/A,,Clear,140,2013-10-11 04:55:00